Filtermöglichkeiten

Zertifikate-Typ:
Basiswert-Typ:
Herkunft:
Branche:
Basiswert:
Typ:
Quanto:
Restlaufzeit:
Hebel:
Abst. Strike:
Spread:

Suchergebnisse Alle Zertifikate

WKN Underlying Laufzeit Art Spread rel. Restlaufzeit Sparplan Bid Ask
JK5QX6 CrowdStrike Holding 24.05.24 15.400,00% 23 nein -   -  
JK3QK0 Cadence Design Systems 24.05.24 7.000,00% 23 nein -   -  
JL07X5 Unilever plc 28.06.24 7.000,00% 58 nein -   -  
JL3PW7 Marvell Technology Group 28.06.24 7.000,00% 58 nein -   -  
JQ7AR5 Devon Energy 28.06.24 7.000,00% 58 nein -   -  
JL1TPK iQIYI Inc. ADR 28.06.24 6.566,67% 58 nein -   -  
JK5N6Y Molina Healthcare Inc 24.05.24 6.354,55% 23 nein -   -  
JK3S4J Cyber-Ark Software Ltd 24.05.24 6.212,50% 23 nein -   -  
JB2J7P Aixtron SE 28.06.24 6.100,00% 58 nein -   -  
JL9NGN RH Restoration Hardware Inc. 28.06.24 6.000,00% 58 nein -   -  
JB2Q5C Las Vegas Sands 28.06.24 6.000,00% 58 nein -   -  
JB2QRB KraneShares CSI China Internet ETF 24.05.24 6.000,00% 23 nein -   -  
JK50PW Kimberly-Clark 24.05.24 6.000,00% 23 nein -   -  
JK6MJK GDS Holdings Ltd open-end 5.900,00% nein -   -  
JL0DTM Ulta Beauty Inc. 28.06.24 5.677,78% 58 nein -   -  
JB7FSE Waters Corporation 24.05.24 5.438,46% 23 nein -   -  
JK22L1 ASML Holding 24.05.24 5.268,42% 23 nein -   -  
JK1HT6 Home Depot Inc. 27.09.24 5.100,00% 149 nein -   -  
JK2C07 CrowdStrike Holding 24.05.24 5.066,67% 23 nein -   -  
JS8PTW Kohl's Corp. 24.01.25 5.000,00% 268 nein -   -  
JB1RZP Enphase Energy Inc 24.05.24 5.000,00% 23 nein -   -  
JB6UW4 Dollar Tree 24.05.24 5.000,00% 23 nein -   -  
JK2SK5 Salesforce Inc 24.05.24 5.000,00% 23 nein -   -  
JK4ZM6 Kimberly-Clark 24.05.24 5.000,00% 23 nein -   -  
JK5QX4 CrowdStrike Holding 24.05.24 4.900,00% 23 nein -   -  
JB2JSU Nvidia 24.05.24 4.900,00% 23 nein -   -  
JB2JST Nvidia 24.05.24 4.900,00% 23 nein -   -  
JL9BLN RH Restoration Hardware Inc. 28.06.24 4.900,00% 58 nein -   -  
JB27WW RH Restoration Hardware Inc. 24.05.24 4.900,00% 23 nein -   -  
JL0GR3 Gold 28.06.24 4.900,00% 58 nein -   -  
JS2GTX Nvidia 28.06.24 4.900,00% 58 nein -   -  
JK5L39 Molina Healthcare Inc 24.05.24 4.700,00% 23 nein -   -  
JK483F Netflix 24.05.24 4.500,00% 23 nein -   -  
JB2JSS Nvidia 24.05.24 3.233,33% 23 nein -   -  
JK1CP1 Cadence Design Systems 24.05.24 3.000,00% 23 nein -   -  
JB8R8D Agilent Technologies 24.05.24 3.000,00% 23 nein -   -  
JK5QX2 CrowdStrike Holding 24.05.24 2.100,00% 23 nein -   -  
JS9SK9 EUR/USD (Euro / US-Dollar) 28.06.24 1.000,00% 58 nein -   -  
JB122H Ballard Power 24.05.24 - nein -   -  
JQ9UYR Microsoft Corp. 28.06.24 - nein -   -  
Seite:: 1 | 2 | 3 |
| 5 | 6 | 7 | 8 | 9 | ... | 625     

Spalten für Suchergebnisse "Alle Zertifikate" auswählen